Flag for United Kingdom Weather past 2 weeks in London, England, United Kingdom

Now
63 °F

Sunny.


Feels Like: 63 °F
Forecast: 43 / 66 °F
Wind: 8 mph from South

Location: Northolt


UV Index: 3 (Moderate)

Visibility: 10 mi


Pressure: 30.27 "Hg

Humidity: 39%

Dew point: 37 °F

Location of LondonLocation

Historic Weather in London

°F

London temperature yesterday

Maximum temperature yesterday: 57 °F (at 1:50 PM)
Minimum temperature yesterday: 36 °F (at 5:50 AM)
Average temperature yesterday: 48 °F

Past Weeks' High & Low Weather Summary

 TemperatureHumidityPressure
High66 °F (Apr 2, 1:50 PM)100% (Apr 5, 7:50 AM)30.45 "Hg (Apr 5, 7:50 AM)
Low36 °F (Apr 15, 5:50 AM)34% (Apr 14, 3:50 PM)29.50 "Hg (Apr 3, 4:50 AM)
Average53 °F70%30.01 "Hg
* Reported Apr 1 3:50 PM — Apr 16 3:50 PM, London, Weather by CustomWeather, © 2014

Note: Actual official high and low records may vary slightly from our data, if they occured in-between our weather recording intervals... More about our weather records

Advertising

Historic Weather Conditions — Data for Previous 24 hours

 ConditionsComfort  
Time TempWeatherWind HumidityBarometerVisibility
3:50 PM
Apr 16
63 °FSunny.8 mph39%30.27 "Hg10 mi
2:50 PM63 °FSunny.8 mph37%30.30 "Hg10 mi
1:50 PM61 °FSunny.8 mph39%30.33 "Hg10 mi
12:50 PM57 °FSunny.8 mph44%30.33 "Hg10 mi
11:50 AM55 °FSunny.8 mph47%30.36 "Hg10 mi
10:50 AM54 °FSunny.8 mph51%30.36 "Hg10 mi
9:50 AM50 °FPassing clouds.9 mph62%30.39 "HgN/A
8:50 AM48 °FSunny.9 mph66%30.39 "Hg10 mi
7:50 AM45 °FSunny.6 mph76%30.39 "Hg10 mi
6:50 AM36 °FPassing clouds.2 mph93%30.39 "HgN/A
5:50 AM36 °FClear.2 mph87%30.39 "HgN/A
4:50 AM36 °FClear.3 mph93%30.39 "HgN/A
3:50 AM36 °FClear.2 mph93%30.39 "HgN/A
2:50 AM37 °FClear.No wind87%30.39 "HgN/A
1:50 AM39 °FClear.No wind87%30.39 "HgN/A
12:50 AM41 °FClear.1 mph81%30.42 "Hg10 mi
11:50 PM
Apr 15
43 °FClear.3 mph81%30.39 "Hg10 mi
10:50 PM45 °FClear.9 mph71%30.39 "Hg10 mi
9:50 PM46 °FClear.7 mph66%30.39 "Hg10 mi
8:50 PM48 °FSunny.9 mph62%30.39 "Hg10 mi
7:50 PM50 °FScattered clouds.12 mph58%30.39 "HgN/A
6:50 PM55 °FPassing clouds.10 mph51%30.36 "HgN/A
5:50 PM57 °FPassing clouds.8 mph39%30.39 "HgN/A
Weather by CustomWeather, © 2014

See weather overview